Вернуться в каталог

DELTA 1 R/B

АктивенHEO
NORAD 4251·ROCKET BODY·🇺🇸 United States

Запущен Nov 22, 1969 с Cape Canaveral Space Force Station

Loading…

Ближайшие Пролёты (ближайшие 24 часа)

TLE

СвежийSource: Space-Track

Эпоха: Sep 14, 2026, 09:19 UTC

1 04251U 69101B   26257.38840568  .00000509  00000-0  43695-3 0  9997
2 04251  27.8979 304.5378 5531038 169.0115 211.3815  4.64992652683324

Отслеживайте DELTA 1 R/B в реальном времени с AllMySat

Download on the App Store